Japanese version Home page |
Updated on December 11, 2022 |
Profile
|
Orbital ElementsEpoch 2022 Aug. 9.0 TT = JDT 2459800.5 T 2021 Dec. 17.37630 TT Rudenko q 3.9869257 (2000.0) P Q z -0.0006919 Peri. 142.64521 +0.26296495 +0.84691776 +/-0.0000208 Node 136.29406 -0.96450283 +0.21876625 e 1.0027585 Incl. 41.97837 +0.02416046 -0.48463557 From 86 observations 2022 May 30-Sept. 25, mean residual 0".4.
|
Magnitudes Graphm1 = 10.5 + 5 log d + 10.0 log r
|
The orbital elements are published on M.P.E.C. 2022-S297.
|